| time (UTC) | temp F | wind direction | speed MPH | gust MPH | rain 1hr in | rain 24hr in | rain mn in | humidity % | barometer mb |
| 20260901095802 | 60 | 202 | 0.0 | 0.0 | 0.10 | 1.34 | 0.30 | 91 | 1011.8 |
| 20260901085802 | 64 | 315 | 0.0 | 0.0 | 0.00 | 1.24 | 0.20 | 84 | 1011.4 |
| 20260901075802 | 63 | 247 | 0.0 | 0.0 | 0.15 | 1.24 | 0.20 | 92 | 1010.5 |
| 20260901065801 | 62 | 225 | 0.0 | 0.0 | 0.00 | 1.08 | 0.04 | 88 | 1010.3 |
| 20260901055801 | 61 | 270 | 0.0 | 0.0 | 0.00 | 1.08 | 0.04 | 87 | 1009.9 |
| 20260901045801 | 63 | 315 | 0.0 | 0.0 | 0.00 | 1.08 | 0.04 | 80 | 1009.5 |
| 20260901035801 | 63 | 270 | 0.0 | 0.0 | 0.00 | 1.08 | 0.04 | 80 | 1009.5 |
| 20260901025802 | 63 | 292 | 0.0 | 0.0 | 0.04 | 1.08 | 0.04 | 83 | 1009.0 |
| 20260901015801 | 63 | 292 | 0.0 | 0.0 | 0.00 | 1.03 | 0.00 | 81 | 1008.5 |
| 20260901005802 | 62 | 270 | 0.0 | 0.0 | 0.02 | 1.03 | 0.00 | 87 | 1008.2 |
| 20260831235801 | 63 | 270 | 0.0 | 0.0 | 0.00 | 1.01 | 0.51 | 82 | 1008.2 |
| 20260831225802 | 63 | 292 | 0.0 | 0.0 | 0.00 | 1.01 | 0.51 | 84 | 1007.6 |
| 20260831215802 | 63 | 315 | 0.0 | 0.0 | 0.00 | 1.01 | 0.51 | 82 | 1007.5 |
| 20260831205801 | 61 | 292 | 0.0 | 0.0 | 0.09 | 1.01 | 0.51 | 90 | 1006.7 |
| 20260831195801 | 60 | 315 | 0.0 | 0.0 | 0.05 | 0.92 | 0.42 | 91 | 1005.8 |
| 20260831185801 | 61 | 315 | 0.0 | 0.0 | 0.27 | 0.86 | 0.36 | 91 | 1004.5 |
| 20260831175802 | 61 | 270 | 0.0 | 0.0 | 0.07 | 0.59 | 0.09 | 88 | 1004.1 |
| 20260831165801 | 62 | 292 | 0.0 | 0.0 | 0.00 | 0.51 | 0.02 | 86 | 1003.8 |
| 20260831155801 | 64 | 292 | 0.0 | 0.0 | 0.00 | 0.51 | 0.02 | 73 | 1003.2 |
| 20260831145801 | 67 | 337 | 0.0 | 0.0 | 0.00 | 0.51 | 0.02 | 68 | 1002.9 |
| 20260831135801 | 65 | 315 | 0.0 | 0.0 | 0.00 | 0.51 | 0.02 | 74 | 1002.6 |
| 20260831125801 | 63 | 22 | 0.0 | 0.0 | 0.00 | 0.51 | 0.02 | 80 | 1002.4 |
| 20260831115802 | 69 | 225 | 0.0 | 0.0 | 0.00 | 0.51 | 0.02 | 68 | 1002.1 |
| 20260831105802 | 67 | 247 | 0.0 | 0.0 | 0.00 | 0.51 | 0.02 | 72 | 1001.9 |